Regional Weather Roundup
Issued by NWS Albany, NY

Home | Current Version | Previous Version | Graphics & Text | Print | Product List | Glossary Off
Versions: 1 2 3 4 5 6 7 8 9 10 11 12 13 14 15 16 17 18 19 20 21 22 23 24 25 26 27 28 29 30 31 32 33 34 35 36 37 38 39 40 41 42 43 44 45 46 47 48 49 50

000
ASUS41 KALY 210510
RWRALY

NEW YORK STATE HOURLY WEATHER ROUNDUP
NATIONAL WEATHER SERVICE ALBANY NY
100 AM EDT TUE APR 21 2015

NOTE: "FAIR" INDICATES FEW OR NO CLOUDS BELOW 12,000 FEET WITH NO
SIGNIFICANT WEATHER AND/OR NO OBSTRUCTIONS TO VISIBILITY.

NYZ032-033-038>043-046>054-057>066-NYZ062>081-210600-
EAST


CITY           SKY/WX    TMP DP  RH WIND       PRES   REMARKS
ALBANY         CLOUDY    52  46  80 N6        29.59F
GLENS FALLS    CLOUDY    49  44  83 N5        29.60F
POUGHKEEPSIE   CLOUDY    56  52  86 SE5       29.54F THUNDER
NEWBURGH       RAIN      54  54 100 MISG      29.58F
MONTGOMERY     LGT RAIN  53  32  44 N7        29.55F
WHITE PLAINS   TSTM      54  53  97 E8        29.55F VSB 1/4
ISLIP          TSTM      53  52  96 SE8       29.58F VSB 1/2
NEW YORK CITY  TSTM      53  52  96 SE7       29.57F VSB 1
CENTRAL PARK   CLOUDY    52  52 100 VRB3      29.60F FOG
$$

NYZ005>009-017-018-044>046-055-056-210600-
CENTRAL


CITY           SKY/WX    TMP DP  RH WIND       PRES   REMARKS
FULTON         CLOUDY    52  50  93 CALM      29.57R
SYRACUSE       LGT RAIN  51  50  96 E3        29.57S
ROME           RAIN      50  49  96 SE9       29.59F
ELMIRA         LGT RAIN  55  54  96 NW3       29.54S FOG
BINGHAMTON     RAIN      51  50  96 SE10      29.55F FOG
MONTICELLO     CLOUDY    52  52 100 W5        29.63S
$$

NYZ026>034-041>043-210600-
NORTH


CITY           SKY/WX    TMP DP  RH WIND       PRES   REMARKS
WATERTOWN      CLOUDY    54  51  90 S8        29.54R
FORT DRUM      NOT AVBL
MASSENA        CLOUDY    48  46  93 E5        29.57R
SARANAC LAKE   CLOUDY    51  46  83 SE7       29.54F
PLATTSBURGH    CLOUDY    46  41  82 E7        29.62F
$$

NYZ001>004-010>016-019>021-210600-
WEST


CITY           SKY/WX    TMP DP  RH WIND       PRES   REMARKS
NIAGARA FALLS  CLOUDY    44  39  82 S12       29.56R
BUFFALO        MOCLDY    45  39  79 SW16      29.59R
DUNKIRK        CLOUDY    44  40  85 SW15      29.62R
JAMESTOWN      CLOUDY    45  37  76 W12G17    29.61R
WELLSVILLE     LGT RAIN  47  43  86 NW9       29.59S
ROCHESTER      DRIZZLE   52  42  69 SW20G26   29.57R
PENN YAN       CLOUDY    53  47  79 W8        29.57S
$$

             KEY
       WCI = WIND CHILL INDEX
       VSB = VISIBILITY
       HX  = HEAT INDEX
$$



USA.gov is the U.S. government's official web portal to all federal, state and local government web resources and services.